Temp_Advection
nan nan nan nan nan nan nan nan nan nan nan nan nan nan nan nan nan nan nan nan nan nan nan nan nan nan nan nan nan nan nan nan
nan -0 -0 0 -0 -0 -0 0 0 0 -0 -0 -0 0 0 0 0 0 0 0 0 -0 -0 -0 -0 -0 -0 0 0 0 -0 nan
nan -0 -0 -0 -0 -0 -0 -0 -0 -0 -0 0 -0 -0 -0 0 0 0 0 -0 -0 0 0 -0 -0 -0 -0 -0 -0 -0 -0 nan
nan -1 -1 -0 -0 -0 -0 -0 -0 -0 -0 -0 -0 -0 -0 0 0 0 0 0 0 -0 -0 -0 -0 -1 -1 -0 -0 -0 -0 nan
nan -1 -0 -0 -0 -0 -0 -0 -0 -0 -0 -0 -0 -0 -0 -0 0 0 -0 -0 -0 -0 -0 0 0 -0 -1 -1 -1 -0 -0 nan
nan -0 -0 -0 -0 -0 -0 -0 -0 0 -0 -0 -0 -0 -0 -1 -0 0 -0 -0 -0 -0 -0 -0 0 -0 -0 -0 -1 -1 -1 nan
nan -0 -0 -0 -0 -0 -0 -0 0 0 0 -0 0 -0 -0 -0 -0 -0 -0 -0 -0 -0 -0 -0 -0 -0 -0 -0 0 0 0 nan
nan -0 -0 0 0 0 -0 -0 -0 0 0 0 0 0 -0 -0 -0 -0 -0 -1 -1 -1 -0 -0 -0 0 0 0 -0 0 -0 nan
nan -0 -0 -0 0 0 0 -0 -0 -0 0 0 0 -0 0 -0 -0 -0 -0 -0 -0 -0 -0 0 0 0 0 0 0 -0 -0 nan
nan -0 0 -0 -0 -0 0 -0 -0 -0 -0 -0 0 0 -0 0 0 0 -0 -0 -1 -0 0 0 0 -0 -0 0 0 0 0 nan
nan 0 0 0 -0 0 0 0 -0 -0 0 -0 -0 -0 -0 0 0 0 -0 -0 0 -0 -0 -0 -0 -0 -0 -0 -0 0 0 nan
nan 0 0 0 0 0 0 0 -0 -0 -0 -0 -0 0 0 0 0 0 0 0 0 -0 -0 -0 -0 -0 -0 -0 -0 -0 -0 nan
nan 0 0 0 0 0 0 -0 -0 -0 -0 -0 -0 -0 -0 -0 0 0 0 0 0 0 0 -0 -0 0 0 0 0 0 0 nan
nan 0 0 0 0 0 0 0 -0 -0 -0 -0 -0 -0 0 0 0 -0 0 -0 -0 -0 0 0 -0 -0 0 0 -0 -0 -0 nan
nan 0 0 0 0 0 0 0 0 -0 -0 -0 0 -0 -0 0 0 0 0 0 0 -0 -0 -0 -0 0 0 -0 0 0 -1 nan
nan -0 -0 0 0 0 0 0 0 0 -0 -0 0 0 -0 -0 -0 -0 -0 -0 -0 0 0 0 -0 -0 -0 0 1 1 -1 nan
nan -0 -0 -0 0 0 0 0 0 0 -0 0 0 0 0 0 0 0 -0 0 -0 -0 -0 -0 -0 0 0 0 0 1 -0 nan
nan -0 -0 -0 0 0 0 0 0 0 0 0 0 0 0 0 0 0 0 -0 -0 -0 -0 -0 -0 0 0 0 0 1 0 nan
nan nan nan nan nan nan nan nan nan nan nan nan nan nan nan nan nan nan nan nan nan nan nan nan nan nan nan nan nan nan nan nan
Wind_Speed
12 7 7 7 5 7 7 8 8 8 7 7 6 7 7 8 9 9 11 11 11 12 14 16 18 20 23 25 27 28 29 30
7 3 3 2 2 1 1 2 6 3 5 6 7 7 8 9 10 12 11 11 12 16 16 18 22 23 24 26 28 29 31 30
13 13 13 12 9 8 6 4 3 2 2 3 6 8 7 8 6 9 12 16 27 27 22 22 21 22 24 24 25 29 31 30
12 13 13 13 12 11 8 7 6 4 4 4 5 7 8 11 14 20 19 26 23 21 21 22 22 22 23 25 25 27 30 32
11 11 12 11 10 9 7 6 5 6 6 5 8 10 15 18 19 20 18 18 19 20 21 20 22 22 24 24 23 26 26 31
10 9 9 8 8 7 6 6 7 8 10 13 12 13 15 16 16 17 18 17 18 20 20 22 24 24 23 22 23 23 22 25
9 7 6 6 7 7 8 9 10 11 12 12 13 13 15 16 17 18 17 20 21 22 23 23 23 21 20 19 19 17 21 19
4 4 4 5 7 9 10 11 13 14 14 14 14 15 16 16 18 19 22 24 25 26 24 22 19 18 19 18 16 14 20 24
3 5 6 9 10 11 13 15 16 17 16 16 16 16 17 18 19 21 23 24 25 22 20 18 16 16 14 13 16 23 25 24
6 8 8 10 12 13 14 16 17 18 18 18 17 18 18 20 21 23 24 24 23 18 21 17 16 19 21 24 20 16 13 12
9 11 11 12 14 15 15 15 16 17 16 17 18 19 20 22 23 23 23 21 19 20 20 21 22 25 24 22 18 16 16 14
12 13 13 14 14 16 15 15 15 16 18 20 20 21 21 21 22 20 18 18 17 14 17 20 23 18 14 13 13 14 14 16
11 11 13 13 17 15 14 15 17 19 20 20 19 19 20 19 16 22 18 15 15 15 16 14 11 14 14 16 17 16 17 18
15 13 14 16 16 14 15 17 18 19 19 19 18 19 19 19 20 16 15 14 14 15 13 14 16 19 20 19 19 20 20 22
14 16 18 20 15 14 16 17 18 17 18 18 19 17 16 15 18 20 13 15 16 17 19 19 20 20 20 20 18 18 21 22
18 16 18 15 14 16 17 19 18 18 18 18 18 20 14 15 14 14 15 16 17 19 21 21 20 20 22 21 25 26 23 24
13 13 14 14 16 18 19 19 18 17 18 18 16 13 14 15 14 14 15 17 20 21 21 20 20 20 23 26 30 31 26 24
11 12 13 16 17 18 20 19 19 19 18 17 17 15 14 13 14 16 17 20 21 21 21 20 20 20 24 27 32 33 25 23
12 13 15 17 20 20 20 21 21 19 19 18 16 15 15 15 17 18 20 20 20 20 20 20 20 20 25 31 34 30 22 23
Wind_Direction
193 204 223 235 256 248 253 251 241 232 233 261 271 280 287 288 291 291 291 295 296 295 294 295 296 294 291 289 283 282 278 278
87 85 71 106 2 28 93 186 204 234 257 269 273 280 279 286 282 289 312 306 312 306 303 300 298 294 287 280 282 282 278 276
91 82 74 73 70 75 72 82 54 29 304 285 292 291 293 294 293 302 306 293 308 310 300 303 297 292 289 284 278 278 278 276
80 71 69 69 69 71 72 67 52 27 40 328 322 316 303 299 284 304 298 300 303 303 304 305 299 295 292 286 282 278 279 277
80 78 73 69 68 69 62 54 30 9 348 339 327 312 301 297 298 293 303 306 305 308 310 306 300 296 292 289 289 281 279 281
86 82 75 69 58 48 36 18 353 342 333 323 318 310 308 311 305 304 310 308 308 310 308 303 299 301 295 292 292 288 279 277
78 68 52 34 19 8 359 348 335 327 325 325 320 318 315 313 311 315 311 311 310 311 310 307 302 302 297 294 281 277 272 274
55 23 353 344 342 339 334 327 324 323 319 317 315 314 314 313 316 312 314 316 316 314 309 311 307 294 285 282 288 286 298 303
350 339 335 337 333 325 320 324 321 318 315 312 312 312 309 310 311 312 311 312 313 315 311 300 288 276 282 292 298 300 300 295
329 332 332 328 325 324 319 320 319 318 316 313 309 309 308 310 310 312 315 317 319 306 287 281 280 289 287 292 285 301 291 312
320 321 322 324 326 321 313 309 309 311 311 311 309 309 310 309 311 313 314 310 299 301 297 291 293 297 299 307 306 290 292 309
310 309 309 308 311 309 308 308 311 314 314 313 312 309 308 308 309 309 309 304 303 302 309 310 305 314 313 309 305 305 303 305
301 303 306 312 312 307 309 312 315 315 317 315 313 312 311 309 300 298 301 300 307 304 317 320 316 312 311 308 305 297 296 295
308 314 310 311 307 304 309 314 316 317 319 318 318 316 310 303 306 306 303 305 301 305 307 307 312 308 303 298 296 295 295 294
303 311 304 311 300 302 309 313 315 316 316 317 319 317 312 301 299 304 291 306 309 318 316 310 305 304 300 298 292 294 298 296
322 317 308 303 304 306 312 314 316 313 316 317 318 323 317 320 328 332 318 317 312 309 306 305 304 302 300 289 287 295 302 298
320 315 308 302 305 307 310 309 310 310 312 312 312 310 311 309 310 310 309 309 311 310 307 306 305 305 296 294 293 298 302 299
319 315 306 301 300 302 307 306 310 306 309 309 309 303 304 307 308 310 309 312 310 308 307 306 305 305 299 296 295 299 301 300
308 293 297 298 296 301 305 307 310 306 304 307 305 300 300 305 308 310 311 310 309 308 308 308 307 305 302 297 297 305 303 298
Height
1533 1539 1542 1542 1543 1543 1545 1546 1547 1548 1547 1547 1548 1548 1548 1548 1548 1547 1544 1542 1540 1538 1537 1534 1532 1530 1528 1526 1523 1521 1519 1517
1535 1538 1540 1541 1541 1543 1543 1545 1544 1545 1547 1547 1547 1547 1546 1545 1544 1541 1540 1540 1538 1535 1531 1529 1528 1524 1522 1519 1516 1513 1511 1510
1540 1540 1539 1539 1540 1542 1543 1544 1543 1544 1545 1544 1542 1542 1542 1542 1541 1539 1538 1535 1532 1530 1526 1523 1520 1517 1514 1511 1509 1507 1504 1504
1539 1540 1541 1541 1542 1543 1543 1543 1543 1542 1542 1543 1542 1542 1541 1541 1538 1536 1533 1529 1526 1522 1520 1516 1513 1511 1508 1506 1504 1501 1497 1494
1541 1542 1543 1543 1543 1544 1544 1544 1544 1542 1541 1541 1540 1540 1538 1537 1533 1529 1526 1524 1522 1518 1514 1511 1508 1504 1501 1499 1498 1495 1493 1487
1543 1544 1544 1544 1544 1544 1544 1544 1543 1541 1539 1537 1536 1535 1533 1530 1528 1524 1521 1519 1516 1513 1510 1506 1502 1498 1495 1492 1490 1488 1485 1482
1543 1544 1545 1545 1545 1544 1543 1542 1542 1540 1538 1536 1534 1531 1529 1527 1524 1520 1517 1514 1511 1508 1503 1499 1495 1492 1490 1487 1483 1480 1478 1476
1545 1545 1545 1545 1544 1543 1543 1542 1540 1539 1536 1534 1531 1529 1526 1524 1520 1517 1513 1509 1505 1502 1498 1493 1491 1487 1484 1480 1479 1476 1473 1471
1544 1544 1544 1543 1543 1542 1541 1539 1537 1535 1533 1530 1527 1525 1522 1519 1516 1513 1509 1505 1500 1495 1492 1488 1484 1480 1478 1477 1474 1472 1470 1467
1542 1542 1542 1542 1541 1540 1538 1536 1533 1531 1529 1526 1523 1521 1518 1515 1511 1508 1503 1499 1494 1491 1485 1482 1480 1478 1476 1474 1472 1469 1466 1464
1541 1542 1541 1541 1539 1538 1536 1533 1531 1528 1526 1522 1519 1516 1514 1510 1506 1503 1500 1496 1489 1486 1482 1480 1478 1475 1473 1470 1468 1466 1464 1461
1540 1540 1539 1538 1536 1534 1533 1530 1528 1525 1523 1519 1515 1512 1509 1505 1503 1500 1496 1491 1486 1483 1479 1476 1474 1472 1470 1467 1465 1463 1461 1459
1538 1537 1536 1535 1533 1532 1530 1528 1525 1522 1519 1515 1511 1508 1505 1502 1497 1493 1491 1487 1483 1481 1476 1474 1473 1471 1468 1466 1463 1461 1459 1457
1534 1534 1533 1532 1530 1529 1527 1525 1521 1518 1514 1510 1506 1503 1499 1496 1493 1489 1487 1484 1481 1479 1476 1472 1470 1468 1465 1462 1460 1458 1455 1452
1531 1530 1529 1528 1527 1525 1523 1520 1516 1512 1510 1507 1503 1498 1495 1493 1488 1484 1482 1480 1478 1475 1473 1471 1468 1464 1461 1458 1455 1453 1450 1447
1527 1527 1527 1527 1525 1524 1521 1517 1514 1510 1505 1503 1499 1494 1492 1488 1485 1482 1480 1478 1477 1474 1471 1468 1464 1460 1456 1452 1449 1446 1443 1440
1527 1526 1526 1524 1522 1521 1517 1514 1508 1504 1502 1498 1495 1491 1489 1486 1483 1480 1478 1476 1473 1470 1467 1463 1460 1457 1450 1447 1444 1441 1437 1434
1526 1525 1524 1522 1519 1516 1511 1508 1504 1501 1497 1494 1491 1488 1485 1482 1480 1477 1474 1472 1469 1466 1462 1459 1456 1453 1445 1441 1438 1434 1430 1427
1524 1522 1520 1518 1515 1511 1507 1505 1500 1496 1493 1490 1487 1485 1481 1478 1476 1473 1470 1468 1465 1462 1458 1455 1451 1449 1441 1435 1431 1428 1425 1422